[[{"header":{"parameterUnit":"m.s-1","parameterCategory":1,"la1":30.2991,"la2":30.254,"lo1":-89.0895,"lo2":-89.0444,"dy":0.0017,"dx":0.0017,"nx":28,"ny":28,"refTime":"2024-03-20T21:00:00:Z","depth":0,"parameterNumber":2,"parameterNumberName":"U-component_of_WINDS"},"data":[0,0,0,0,0,0,0,0,0,0,0,0,0,0,0,0,0,0,0,0,0,0,0,0,0,0,0,0,0,0,0,0,0,0,0,0,0,0,0,0,0,0,0,0,0,0,0,0,0,0,0,0,0,0,0,0,0,0,-7.1398,-7.14,0,-7.1526,-7.1528,-7.1529,-7.136,-7.1354,-7.1348,-7.1342,-7.1476,-7.1485,-7.1494,0,0,0,0,0,0,0,0,0,0,0,0,0,-7.1011,-7.1019,-7.1398,-7.14,-7.1401,-7.1526,-7.1528,-7.153,-7.1361,-7.1353,-7.1346,-7.1339,-7.1473,-7.1484,-7.1495,0,0,0,0,0,0,0,0,0,0,0,0,0,-7.1163,-7.1021,-7.1398,-7.1332,-7.1327,-7.1526,-7.1528,-7.153,-7.1363,-7.1353,-7.1344,-7.1336,-7.1469,-7.1483,-7.1497,-7.1766,0,0,-7.1539,-7.1545,0,0,0,0,0,0,0,0,-7.1155,-7.1178,-7.134,-7.1337,-7.1332,-7.1418,-7.144,-7.1609,-7.1365,-7.1349,-7.1342,-7.1331,-7.1464,-7.1478,-7.1522,-7.1772,-7.1778,-7.154,-7.1549,-7.1555,-7.1559,0,0,0,0,0,0,0,-7.1144,-7.1171,-7.1449,-7.1343,-7.1338,-7.1297,-7.1309,-7.1471,-7.1457,-7.135,-7.1338,-7.1355,-7.146,-7.1509,-7.1524,-7.178,-7.154,-7.1552,-7.1561,-7.1566,-7.2258,-7.2267,0,0,0,0,0,0,-7.1141,-7.1163,-7.1445,-7.1453,-7.1219,-7.1312,-7.1325,-7.14,-7.1455,-7.1454,-7.1363,-7.1347,-7.149,-7.1508,-7.1528,-7.1846,-7.1555,-7.1568,-7.1576,-7.2248,-7.226,-7.2271,0,0,0,0,0,0,-7.1134,-7.1168,-7.1439,-7.1305,-7.1336,-7.1328,-7.1414,-7.1407,-7.1455,-7.1464,-7.1461,-7.1415,-7.1483,-7.1509,-7.1708,-7.1848,-7.1574,-7.1587,-7.2236,-7.2252,-7.2265,-7.2484,0,0,0,0,0,0,-7.1123,-7.1166,-7.1267,-7.1308,-7.1344,-7.1617,-7.1422,-7.1416,-7.148,-7.146,-7.1513,-7.1513,-7.1478,-7.1688,-7.1722,-7.1862,-7.1597,-7.2223,-7.2243,-7.2261,-7.2465,-7.2505,-7.254,0,0,0,0,0,-7.111,-7.1325,-7.1273,-7.1308,-7.147,-7.1625,-7.1645,-7.16,-7.1492,-7.1594,-7.16,-7.1511,-7.1829,-7.171,-7.1746,-7.1893,-7.2214,-7.2237,-7.2259,-7.2448,-7.2497,-7.2539,0,0,0,0,0,0,-7.1301,-7.1329,-7.1272,-7.1506,-7.1565,-7.1596,-7.1723,-7.1654,-7.1745,-7.1723,-7.1665,-7.1678,-7.1891,-7.1912,-7.178,-7.2157,-7.2003,-7.2034,-7.2134,-7.2181,-7.2218,-7.2207,-7.1609,0,0,0,0,0,-7.137,-7.1492,-7.1511,-7.1716,-7.1748,-7.1732,-7.1797,-7.1758,-7.1816,-7.1839,-7.186,-7.1921,-7.2033,-7.2109,-7.2214,-7.2469,-7.2477,-7.2588,-7.2626,-7.2656,-7.2683,-7.2818,-7.2867,-7.2345,-7.2345,-7.2344,0,0,-7.1514,-7.1545,-7.1625,-7.1755,-7.1795,-7.1923,-7.1753,-7.1896,-7.199,-7.1861,-7.2049,-7.2068,-7.2132,-7.236,-7.2461,-7.2384,-7.283,-7.2685,-7.271,-7.2719,-7.2846,-7.2896,-7.294,-7.236,-7.2357,-7.2355,0,0,-7.1841,-7.1878,-7.2052,-7.2096,-7.2159,-7.2147,-7.219,-7.2233,-7.2239,-7.2428,-7.2333,-7.2447,-7.2643,-7.2692,-7.2743,-7.3093,-7.3014,-7.3129,-7.3324,-7.3457,-7.3498,-7.3534,-7.3657,-7.3702,-7.3156,-7.3157,-7.3157,0,-7.2012,-7.2201,-7.215,-7.23,-7.2359,-7.2249,-7.2425,-7.2471,-7.2567,-7.2611,-7.2524,-7.2768,-7.2804,-7.3041,-7.3126,-7.3172,-7.3218,-7.312,-7.3496,-7.3532,-7.3565,-7.3681,-7.3728,-7.317,-7.3169,-7.3167,-7.3166,0,-7.2407,-7.254,-7.2673,-7.2767,-7.2842,-7.3005,-7.2979,-7.3062,-7.3018,-7.3016,-7.321,-7.3249,-7.3359,-7.3414,-7.3373,-7.3647,-7.3597,-7.3505,-7.3348,-7.3628,-7.3737,-7.3781,-7.3189,-7.3184,-7.318,-7.3177,0,0,-7.2854,-7.2919,-7.2968,-7.3009,-7.3073,-7.3175,-7.3334,-7.3441,-7.3512,-7.3584,-7.3714,-7.3885,-7.38,-7.3858,-7.3822,-7.3939,-7.4211,-7.3832,-7.3832,-7.3898,-7.4514,-7.458,-7.4633,-7.4162,-7.417,-7.4177,-7.4508,0,-7.3179,-7.345,-7.3411,-7.3673,-7.3795,-7.3694,-7.3832,-7.3887,-7.3891,-7.3995,-7.3999,-7.412,-7.4,-7.4034,-7.4146,-7.4154,-7.4334,-7.4131,-7.4282,-7.4288,-7.4265,-7.4689,-7.476,-7.507,-7.455,-7.4557,-7.4562,0,-7.3592,-7.3677,-7.3952,-7.3996,-7.4046,-7.4171,-7.4266,-7.4368,-7.4429,-7.4423,-7.449,-7.4433,-7.4593,-7.4437,-7.4656,-7.4519,-7.458,-7.4594,-7.4605,-7.4614,-7.4439,-7.4707,-7.5168,-7.5213,-7.4629,-7.4624,-7.4619,0,-7.3887,-7.4071,-7.4258,-7.4297,-7.4355,-7.4445,-7.4473,-7.4525,-7.4592,-7.4678,-7.472,-7.4824,-7.488,-7.4962,-7.4935,-7.4825,-7.516,-7.5002,-7.5159,-7.516,-7.523,-7.5225,-7.5704,-7.5277,-7.5276,-7.5275,-7.5274,0,-7.4251,-7.4423,-7.4391,-7.4506,-7.4695,-7.465,-7.4839,-7.4856,-7.4903,-7.502,-7.4942,-7.5054,-7.5013,-7.5123,-7.5104,-7.5288,-7.5315,-7.5314,-7.5306,-7.5319,-7.5319,-7.5355,-7.5331,-7.5287,-7.5284,-7.5282,-7.528,0,-7.461,-7.4596,-7.4793,-7.4833,-7.4847,-7.4985,-7.5018,-7.5127,-7.5126,-7.5275,-7.5308,-7.5306,-7.5432,-7.5415,-7.5555,-7.5542,-7.577,-7.5738,-7.5749,-7.574,-7.5897,-7.5881,-7.6412,-7.6478,-7.6012,-7.6016,-7.602,0,-7.4841,-7.497,-7.5024,-7.5096,-7.5131,-7.5249,-7.5317,-7.528,-7.5355,-7.5435,-7.5535,-7.5653,-7.5745,-7.5952,-7.5964,-7.6071,-7.6039,-7.6218,-7.6054,-7.6063,-7.6038,-7.6029,-7.6041,-7.6249,-7.6254,-7.6258,-7.6262,0,-7.5252,-7.5239,-7.534,-7.5441,-7.5524,-7.5602,-7.5671,-7.5736,-7.5704,-7.5793,-7.592,-7.5992,-7.6136,-7.6255,-7.6356,-7.6386,-7.632,-7.6314,-7.6355,-7.6367,-7.6367,-7.6366,-7.5833,-7.6301,-7.6297,-7.6294,-7.6292,-7.629,-7.5551,-7.5661,-7.5716,-7.5832,-7.5881,-7.5948,-7.6051,-7.6064,-7.6169,-7.6281,-7.6254,-7.6398,-7.6458,-7.6587,-7.6629,-7.6742,-7.6676,-7.6737,-7.6751,-7.6766,-7.6783,-7.6353,-7.6761,-7.676,-7.6759,-7.6758,-7.6757,0,-7.5955,-7.5986,-7.6093,-7.6193,-7.6285,-7.6215,-7.6289,-7.637,-7.6497,-7.6559,-7.6651,-7.6799,-7.6914,-7.6937,-7.7047,-7.7133,-7.7105,-7.7163,-7.7154,-7.7162,-7.6837,-7.6788,-7.7184,-7.7184,-7.7184,-7.7183,-7.7183,-7.7183,-7.6175,-7.6357,-7.6352,-7.6558,-7.6588,-7.6727,-7.6775,-7.6837,-7.6885,-7.7053,-7.7148,-7.7162,-7.7208,-7.7322,-7.7425,-7.7429,-7.7472,-7.7542,-7.7533,-7.7228,-7.7185,-7.7144,-7.7098,-7.7552,-7.7553,-7.7849,-7.7851,-7.7853]},{"header":{"parameterUnit":"m.s-1","parameterCategory":1,"la1":30.2991,"la2":30.254,"lo1":-89.0895,"lo2":-89.0444,"dy":0.0017,"dx":0.0017,"nx":28,"ny":28,"refTime":"2024-03-20T21:00:00:Z","depth":0,"parameterNumber":3,"parameterNumberName":"V-component_of_WINDS"},"data":[0,0,0,0,0,0,0,0,0,0,0,0,0,0,0,0,0,0,0,0,0,0,0,0,0,0,0,0,0,0,0,0,0,0,0,0,0,0,0,0,0,0,0,0,0,0,0,0,0,0,0,0,0,0,0,0,0,0,0.1765,0.1764,0,0.1746,0.1746,0.1746,0.1687,0.1686,0.1685,0.1683,0.1667,0.1668,0.1669,0,0,0,0,0,0,0,0,0,0,0,0,0,0.1753,0.1753,0.1765,0.1764,0.1764,0.1746,0.1746,0.1746,0.1688,0.1686,0.1684,0.1683,0.1667,0.1668,0.1669,0,0,0,0,0,0,0,0,0,0,0,0,0,0.1749,0.1754,0.1765,0.1733,0.173,0.1746,0.1746,0.1746,0.1688,0.1686,0.1684,0.1682,0.1667,0.1668,0.1669,0.1716,0,0,0.1673,0.1673,0,0,0,0,0,0,0,0,0.1749,0.1749,0.1738,0.1735,0.1732,0.1717,0.1736,0.1736,0.1688,0.1704,0.1683,0.1681,0.1686,0.1685,0.1686,0.1715,0.1714,0.1673,0.1673,0.1674,0.1674,0,0,0,0,0,0,0,0.1749,0.175,0.1757,0.1738,0.1734,0.1721,0.1718,0.1736,0.1706,0.1702,0.1698,0.1697,0.1684,0.1685,0.1685,0.1714,0.1673,0.1674,0.1674,0.1675,0.1783,0.1785,0,0,0,0,0,0,0.1754,0.175,0.1758,0.1757,0.1736,0.1723,0.1719,0.1724,0.1706,0.1701,0.1698,0.1694,0.1684,0.1684,0.1684,0.1739,0.1674,0.1675,0.1676,0.178,0.1783,0.1785,0,0,0,0,0,0,0.1754,0.1755,0.1759,0.1752,0.1752,0.1725,0.173,0.1724,0.1726,0.1703,0.1697,0.1705,0.1682,0.1683,0.1709,0.1738,0.1676,0.1677,0.1778,0.1781,0.1784,0.1848,0,0,0,0,0,0,0.1754,0.1755,0.1772,0.1753,0.1752,0.1782,0.1732,0.1726,0.1728,0.1722,0.1707,0.1703,0.1681,0.1707,0.171,0.1738,0.1678,0.1775,0.1779,0.1783,0.1844,0.1853,0.1862,0,0,0,0,0,0.1753,0.1791,0.1773,0.1774,0.1772,0.1784,0.1784,0.1757,0.173,0.1747,0.1733,0.1704,0.1734,0.171,0.1713,0.1742,0.1773,0.1778,0.1783,0.1839,0.1851,0.1862,0,0,0,0,0,0,0.1813,0.1787,0.1767,0.1799,0.1794,0.1774,0.1794,0.177,0.1773,0.1767,0.1734,0.1732,0.1763,0.1755,0.1729,0.1787,0.1749,0.1755,0.1791,0.1802,0.1811,0.1813,0.1679,0,0,0,0,0,0.183,0.1841,0.1818,0.1849,0.1847,0.1822,0.1826,0.1805,0.1799,0.1797,0.1784,0.178,0.1789,0.1795,0.1802,0.1842,0.1839,0.1864,0.1873,0.1881,0.1886,0.1909,0.192,0.1801,0.1801,0.1801,0,0,0.1865,0.1853,0.1861,0.1861,0.1854,0.1867,0.182,0.1836,0.1846,0.1799,0.1823,0.1814,0.1807,0.1841,0.1856,0.1836,0.1918,0.1887,0.1893,0.1894,0.1915,0.1926,0.1936,0.1805,0.1804,0.1803,0,0,0.1936,0.1927,0.1952,0.1947,0.1938,0.1921,0.1928,0.1911,0.1903,0.1927,0.1893,0.1905,0.192,0.1917,0.1918,0.1991,0.1965,0.1994,0.2042,0.2064,0.2074,0.2082,0.2109,0.2119,0.1999,0.1999,0.1999,0,0.1981,0.1999,0.1969,0.1987,0.1988,0.1947,0.1973,0.197,0.1964,0.1967,0.1945,0.1964,0.1957,0.1991,0.2009,0.201,0.2017,0.1995,0.2074,0.2082,0.209,0.2115,0.2125,0.2003,0.2002,0.2002,0.2002,0,0.2055,0.2068,0.209,0.2085,0.2089,0.2111,0.2086,0.2094,0.2074,0.206,0.2086,0.2075,0.208,0.2087,0.2067,0.2118,0.2107,0.208,0.2041,0.2105,0.2129,0.2138,0.2008,0.2007,0.2006,0.2005,0,0,0.2162,0.2142,0.215,0.2148,0.2136,0.2146,0.2168,0.2172,0.218,0.2178,0.2196,0.2211,0.2187,0.2188,0.2168,0.2188,0.2248,0.2159,0.2159,0.2177,0.2306,0.2327,0.2338,0.2231,0.2233,0.2234,0.2307,0,0.223,0.2264,0.2239,0.2278,0.2291,0.2253,0.2272,0.2268,0.2256,0.2266,0.2253,0.2265,0.2231,0.2232,0.225,0.2237,0.2274,0.2232,0.2249,0.225,0.2252,0.235,0.2372,0.2441,0.2316,0.2317,0.2318,0,0.2314,0.2315,0.2356,0.2343,0.2347,0.2365,0.2368,0.2377,0.2373,0.2363,0.2365,0.2341,0.2363,0.2324,0.2355,0.2327,0.2333,0.2328,0.233,0.2331,0.2288,0.2355,0.2462,0.2473,0.2332,0.2331,0.233,0,0.2389,0.2402,0.2428,0.2427,0.2413,0.2426,0.2421,0.2414,0.2419,0.2422,0.2425,0.2431,0.2435,0.2441,0.2419,0.2393,0.2454,0.2413,0.2447,0.2448,0.2462,0.2461,0.2572,0.2465,0.2465,0.2464,0.2464,0,0.2468,0.2495,0.2462,0.2478,0.2508,0.2479,0.251,0.25,0.2495,0.251,0.2478,0.2493,0.2464,0.2477,0.246,0.2489,0.2491,0.2484,0.248,0.2488,0.2489,0.2491,0.2486,0.2467,0.2466,0.2466,0.2465,0,0.2557,0.2536,0.2562,0.2547,0.2544,0.2566,0.2554,0.2569,0.2555,0.2575,0.2578,0.2557,0.2571,0.255,0.2561,0.255,0.2591,0.2579,0.2592,0.2589,0.2625,0.2622,0.2742,0.2757,0.2639,0.264,0.2641,0,0.2609,0.2629,0.2616,0.2623,0.262,0.2632,0.2637,0.2611,0.2617,0.2615,0.2631,0.2642,0.2649,0.2672,0.2659,0.2668,0.2656,0.2698,0.2658,0.2665,0.2658,0.2658,0.266,0.2706,0.2708,0.2709,0.271,0,0.2704,0.2693,0.2701,0.2706,0.2713,0.2716,0.2716,0.2725,0.2697,0.2707,0.272,0.2726,0.2737,0.2749,0.2755,0.2751,0.2727,0.2723,0.2731,0.274,0.2747,0.2745,0.2616,0.272,0.2719,0.2718,0.2718,0.2717,0.2777,0.2793,0.2787,0.2797,0.2795,0.2797,0.2811,0.28,0.281,0.2817,0.2801,0.2819,0.2816,0.2821,0.282,0.2835,0.2817,0.2829,0.2832,0.2836,0.2842,0.2745,0.2836,0.2835,0.2835,0.2835,0.2834,0,0.2871,0.2865,0.2875,0.2877,0.2887,0.2862,0.2862,0.2872,0.2887,0.2886,0.2894,0.2911,0.2922,0.291,0.292,0.2934,0.2924,0.2938,0.2937,0.2937,0.2857,0.2849,0.2947,0.2947,0.2947,0.2947,0.2947,0.2947,0.2921,0.2948,0.2937,0.2964,0.2958,0.2974,0.2977,0.2979,0.2978,0.2998,0.3007,0.2999,0.2994,0.3004,0.3014,0.3011,0.3016,0.3035,0.3028,0.2953,0.2942,0.2932,0.2924,0.3036,0.3036,0.3107,0.3107,0.3108]}]]